User: anonymous   Login
Location: Chèvreville
(49.1099°N, 2.8495°E)
Time: 05:44:03
(UTC+00:00)
Language:

COSMOS 2455 - Orbit

View from above orbital plane
View from above orbital plane
View from above satellite
View from above satellite

Ground track
Ground track

The orbit data is extracted from the following two-line orbital elements,

1 36095U 09063A   23159.14181961 -.00000012  00000-0  45153-4 0  9998
2 36095  67.1490  59.9233 0008791 257.8415 102.1685 13.96839986690785
Epoch (UTC): 08 June 2023 03:24:13
Eccentricity: 0.0008791
inclination: 67.1490°
perigee height: 898 km
apogee height: 911 km
right ascension of ascending node: 59.9233°
argument of perigee: 257.8415°
revolutions per day: 13.96839986
mean anomaly at epoch: 102.1685°
orbit number at epoch: 69078

The dashed part of the orbit path shows where the satellite is in the earth's shadow,  

DLR